Location: Unspecified
(48.2082°N, 0.0000°E)
Time: 21:14:49
(UTC+00:00)

A-11 Canister half - Pass Details

Date: 22 June 2019
Orbit: 1514 x 1685 km, 47.2° (Epoch: 22 July)

Event Time Altitude Azimuth Distance (km) Brightness Sun altitude
Rises 13:31:33 0° 268° (W) 4,862 11.9 59.5°
Reaches altitude 10° 13:34:43 10° 269° (W) 3,854 11.6 59.2°
Maximum altitude 13:44:33 86° 182° (S) 1,589 10.4 58.0°
Drops below altitude 10° 13:54:00 10° 96° (E) 3,720 10.9 56.8°
Sets 13:57:00 0° 96° (E) 4,686 11.3 56.4°
